Find Starlink 4350

NORAD ID: 53045 Int'l Des: 2022-077 Owner: SPXS Country: US Constellation: starlink operational
LEOCIRCULARRETROGRADESSO

当前视图

正在加载3D地球...

About Starlink 4350

Starlink 4350 (NORAD 53045) is a starlink constellation satellite (v1.5) launched Jul 11, 2022 by SPXS of US. It operates in LEO, CIRCULAR, RETROGRADE, SSO orbit with a mass of 297.00 kg.

即将过境

Passes for default location (London). Set your location on the main map for personalized predictions.

高度历史

Loading altitude history...

两行轨道根数

1 53045U 22077C 26246.91668981 .00095037 00000-0 37376-2 0 9995
2 53045 97.2844 62.9326 0002411 90.6147 151.0312 15.25257599 5789
Epoch: Sep 3, 2026 • Age: 8 hours

当前状态

高度 496.7 km
远地点 / 近地点 N/A
速度 7.62 km/s
星下点 -15.67°S, 12.91°W
发射日期 Jul 11, 2022
运行时间 4.1 years
类型 internet

技术详情

分类 Payload
质量 297.00 kg
干质量 275.00 kg
总质量 297.00 kg
长度 0.20 m
直径 2.80 m
跨度 9.00 m
形状 Box + pan
制造商 SPXS
平台类型 Starlink
阶段状态 In Orbit
所有者/国家 SPXS/US

Most Searched